Location: Eaton
(41.3139°N, 82.0207°W)
Time: 12:31:46
(UTC+00:00)

Cosmos 2322 - Pass Details

Date: 17 June 2021
Orbit: 840 x 855 km, 71.0° (Epoch: 26 July)

Event Time Altitude Azimuth Distance (km) Brightness Sun altitude
Exits shadow 03:08:31 27° 169° (S) 1,560 4.6 -17.6°
Maximum altitude 03:11:20 51° 108° (ESE) 1,051 3.9 -17.9°
Drops below altitude 10° 03:16:47 10° 34° (NE) 2,464 6.4 -18.4°
Sets 03:19:17 0° 29° (NNE) 3,404 7.3 -18.7°
